GALAXY 28 (G-28)

Last updated on Sun Jul 06 2025 00:02:42 GMT+0000 (Coordinated Universal Time)

1 28702U 05022A 25186.54716752 -.00000173 00000+0 00000+0 0 9997 2 28702 2.4045 83.3128 0002640 31.6022 277.1476 1.00271097 48505
UTC large
Height (km)
Speed (km/s)
/
Latitude / Longitude
Inclination (degrees)
Orbital Period (minutes)
Azimuth
Elevation
Range (km)
Doppler Factor

Next 0 passes for location: London (51.5072 / 0.1276)

Sorry there are no passes over London.